Find Ibuki 2

NORAD ID: 43672 Int'l Des: 2018-084 Owner: JAXA Country: J operational
LEOCIRCULARRETROGRADESSO

实时位置

正在加载3D地球...

关于 Ibuki 2

正在加载描述...

即将过境

Passes for default location (London). Set your location on the main map for personalized predictions.

高度历史

Loading altitude history...

两行轨道根数

1 43672U 18084B 26105.86694618 .00000504 00000-0 66523-4 0 9990
2 43672 97.8720 218.1496 0001441 94.0794 266.0585 14.84237300404317
Epoch: Apr 15, 2026 • Age: 14 hours

当前状态

高度 627.9 km
速度 7.54 km/s
星下点 -30.18°S, 149.77°W
发射日期 Oct 29, 2018
运行时间 7.4 years
类型 other

技术详情

分类 Payload
质量 1750.00 kg
干质量 1700.00 kg
总质量 1750.00 kg
长度 5.30 m
直径 2.00 m
跨度 16.50 m
形状 Box + 2 Pan
制造商 MELCO
平台类型 GOSAT
阶段状态 In Orbit
所有者/国家 JAXA/J

Most Searched